Weather reports worldwide

Advertisment
Benson, United Kingdom (3658): temperature & dewpoint: 18.05.2017 20:00:00 - 24.05.2017 20:00:00 (BST)Benson, United Kingdom (3658): temperature 5cm: 18.05.2017 20:00:00 - 24.05.2017 20:00:00 (BST)Benson, United Kingdom (3658): temperature -20cm & temperature -100cm: 18.05.2017 20:00:00 - 24.05.2017 20:00:00 (BST)Benson, United Kingdom (3658): wind speed: 18.05.2017 20:00:00 - 24.05.2017 20:00:00 (BST)Benson, United Kingdom (3658): wind direction: 18.05.2017 20:00:00 - 24.05.2017 20:00:00 (BST)Benson, United Kingdom (3658): reduced air pressure: 18.05.2017 20:00:00 - 24.05.2017 20:00:00 (BST)Benson, United Kingdom (3658): visibility: 18.05.2017 20:00:00 - 24.05.2017 20:00:00 (BST)Benson, United Kingdom (3658): precipitation: 18.05.2017 20:00:00 - 24.05.2017 20:00:00 (BST)
Date & Time tt [°C] td [°C] tt 5cm [°C] tt -20cm [°C] tt -100cm [°C] ff [km/h] ff [kn] dd ppp [hPa] vv [km] rr [mm]
24.05.2017 20:00:00 22,9 15,1 - - - 8 4 NE 1024,8 10 0,0
24.05.2017 19:00:00 23,7 13,9 - - - 8 4 NW 1024,7 10 0,0
24.05.2017 18:00:00 23,8 13,8 - - - 8 4 NW 1024,8 10 0,0
24.05.2017 17:00:00 23,9 13,4 - - - 9 5 NNW 1025,0 10 0,0
24.05.2017 16:00:00 23,8 13,2 - - - 8 4 NNE 1025,3 10 0,0
24.05.2017 15:00:00 23,5 14,0 - - - 9 5 ENE 1025,8 10 0,0
24.05.2017 14:00:00 22,9 14,0 - - - 4 2 NW 1025,9 10 0,0
24.05.2017 13:00:00 21,7 14,6 - - - 8 4 NNE 1026,4 10 0,0
24.05.2017 12:00:00 20,2 14,0 - - - 5 3 ENE 1026,6 10 0,0
24.05.2017 11:00:00 18,1 14,3 - - - 4 2 N 1027,0 10 0,0
24.05.2017 10:00:00 15,9 13,4 16,0 14,2 12,0 2 1 S 1026,9 10 0,0
24.05.2017 09:00:00 13,4 13,1 - - - 4 2 WNW 1026,9 5 0,0
24.05.2017 08:00:00 12,8 12,7 - - - 8 4 NNW 1026,4 1,8 0,0
24.05.2017 07:00:00 12,4 12,4 - - - 5 3 SW 1026,1 0,4 0,0
24.05.2017 06:00:00 12,3 12,2 - - - 5 3 SW 1025,7 0,3 0,0
24.05.2017 05:00:00 12,2 12,1 - - - 4 2 W 1025,2 0,2 0,0
24.05.2017 04:00:00 11,5 11,3 - - - 0 0 N 1025,4 5 0,0
24.05.2017 03:00:00 12,0 11,6 - - - 4 2 WNW 1025,1 10 0,0
24.05.2017 02:00:00 12,4 11,5 - - - 2 1 WNW 1024,9 10 0,0
24.05.2017 01:00:00 14,0 12,4 - - - 8 4 W 1024,8 28 0,0
24.05.2017 00:00:00 14,2 12,3 - - - 9 5 WSW 1024,6 10 0,0
23.05.2017 23:00:00 14,2 12,1 - - - 8 4 SSW 1024,4 10 0,0
23.05.2017 22:00:00 14,6 12,8 - - - 8 4 S 1024,1 10 0,0
23.05.2017 21:00:00 17,5 13,5 - - - 8 4 SW 1023,4 10 0,0
23.05.2017 20:00:00 19,5 13,3 - - - 13 7 WSW 1022,7 10 0,0
23.05.2017 19:00:00 20,1 13,5 - - - 11 6 WSW 1022,4 10 0,0
23.05.2017 18:00:00 19,9 13,7 - - - 9 5 SW 1022,3 10 0,0
23.05.2017 17:00:00 19,9 13,6 - - - 11 6 WSW 1022,2 10 0,0
23.05.2017 16:00:00 18,9 14,0 - - - 15 8 W 1022,4 10 0,0
23.05.2017 15:00:00 17,8 14,1 - - - 15 8 SW 1022,4 10 0,0
23.05.2017 14:00:00 17,6 14,1 - - - 11 6 W 1022,3 10 0,0
23.05.2017 13:00:00 17,2 13,9 - - - 9 5 WSW 1022,1 10 0,0
23.05.2017 12:00:00 17,0 13,5 - - - 11 6 WSW 1021,7 10 0,0
23.05.2017 11:00:00 16,9 12,8 - - - 11 6 W 1021,3 10 0,0
23.05.2017 10:00:00 16,9 12,9 - 14,0 12,0 9 5 SW 1020,7 10 0,0
23.05.2017 09:00:00 15,0 11,5 - - - 8 4 W 1020,6 10 0,0
23.05.2017 08:00:00 14,2 10,8 - - - 9 5 W 1020,1 10 0,0
23.05.2017 07:00:00 13,5 10,6 - - - 5 3 NW 1019,4 10 0,0
23.05.2017 06:00:00 11,0 9,8 - - - 2 1 NW 1018,7 10 0,0
23.05.2017 05:00:00 9,6 8,6 - - - 4 2 SSE 1018,6 10 0,0
23.05.2017 04:00:00 10,4 9,0 - - - 5 3 SW 1018,1 10 0,0
23.05.2017 03:00:00 11,5 9,4 - - - 13 7 W 1017,6 10 0,0
23.05.2017 02:00:00 11,9 9,5 - - - 8 4 W 1017,2 10 0,0
23.05.2017 01:00:00 12,8 10,3 - - - 8 4 W 1016,7 10 0,0
23.05.2017 00:00:00 13,7 11,1 - - - 15 8 WSW 1016,1 10 0,0
22.05.2017 23:00:00 15,0 11,2 - - - 13 7 WSW 1015,7 10 0,0
22.05.2017 22:00:00 16,1 11,9 - - - 11 6 SW 1015,1 10 0,0
22.05.2017 21:00:00 16,7 10,1 - - - 11 6 S 1014,4 10 0,0
22.05.2017 20:00:00 18,4 10,9 - - - 11 6 S 1013,9 10 0,0
22.05.2017 19:00:00 21,4 9,3 - - - 18 10 S 1013,9 10 0,0
22.05.2017 18:00:00 22,4 10,1 - - - 21 11 S 1013,6 10 0,0
22.05.2017 17:00:00 22,5 8,1 - - - 24 13 S 1013,7 10 0,0
22.05.2017 16:00:00 22,7 8,6 - - - 24 13 S 1014,0 10 0,0
22.05.2017 15:00:00 22,8 9,7 - - - 21 11 S 1014,3 10 0,0
22.05.2017 14:00:00 22,4 8,5 - - - 24 13 SSE 1014,8 10 0,0
22.05.2017 13:00:00 22,0 9,5 - - - 22 12 S 1015,5 10 0,0
22.05.2017 12:00:00 20,8 9,2 - - - 22 12 S 1016,0 10 0,0
22.05.2017 11:00:00 19,2 9,8 - - - 21 11 SE 1016,2 10 0,0
22.05.2017 10:00:00 17,4 9,9 18,2 13,4 11,9 16 9 SE 1016,7 10 0,0
22.05.2017 09:00:00 15,7 9,6 - - - 13 7 SE 1016,7 10 0,0
22.05.2017 08:00:00 14,0 8,9 - - - 18 10 ESE 1016,7 10 0,0
22.05.2017 07:00:00 13,1 8,8 - - - 22 12 ESE 1016,9 10 0,0
22.05.2017 06:00:00 12,8 8,5 - - - 22 12 ESE 1017,1 19 0,0
22.05.2017 05:00:00 12,1 8,5 - - - 15 8 ESE 1017,3 10 0,0
22.05.2017 04:00:00 12,2 8,4 - - - 22 12 ESE 1017,4 10 0,0
22.05.2017 03:00:00 12,7 8,5 - - - 22 12 ESE 1018,0 10 0,0
22.05.2017 02:00:00 12,9 8,5 - - - 26 14 ESE 1018,5 10 0,0
22.05.2017 01:00:00 13,4 8,4 - - - 24 13 ESE 1019,2 10 0,0
22.05.2017 00:00:00 12,9 8,2 - - - 13 7 ESE 1019,8 10 0,0
21.05.2017 23:00:00 10,4 8,5 - - - 2 1 W 1020,3 35 0,0
21.05.2017 22:00:00 12,1 7,9 - - - 9 5 ESE 1020,4 10 0,0
21.05.2017 21:00:00 13,7 7,9 - - - 9 5 SE 1020,4 30 0,0
21.05.2017 20:00:00 15,4 7,5 - - - 16 9 SSE 1020,4 35 0,0
21.05.2017 19:00:00 17,5 7,2 - - - 18 10 SSE 1020,5 10 0,0
21.05.2017 18:00:00 17,9 7,6 - - - 21 11 S 1021,0 40 0,0
21.05.2017 17:00:00 18,7 7,9 - - - 22 12 S 1021,4 10 0,0
21.05.2017 16:00:00 18,6 7,3 - - - 21 11 S 1021,9 40 0,0
21.05.2017 15:00:00 18,0 6,8 - - - 22 12 S 1022,7 10 0,0
21.05.2017 14:00:00 17,5 8,0 - - - 21 11 S 1023,2 10 0,0
21.05.2017 13:00:00 16,1 7,7 - - - 18 10 S 1024,1 10 0,0
21.05.2017 12:00:00 16,6 8,3 - - - 21 11 S 1024,4 10 0,0
21.05.2017 11:00:00 15,2 7,7 - - - 18 10 S 1024,7 10 0,0
21.05.2017 10:00:00 13,0 9,1 - 13,0 11,9 16 9 S 1024,9 10 0,0
21.05.2017 09:00:00 12,2 9,7 - - - 13 7 S 1025,1 10 0,0
21.05.2017 08:00:00 10,1 9,0 - - - 13 7 S 1025,0 10 0,0
21.05.2017 07:00:00 9,6 8,9 - - - 9 5 S 1024,5 11 0,0
21.05.2017 06:00:00 8,7 8,4 - - - 11 6 S 1024,1 9 0,0
21.05.2017 05:00:00 8,3 8,1 - - - 11 6 S 1023,8 3,9 0,0
21.05.2017 04:00:00 7,1 6,8 - - - 11 6 S 1023,5 12 0,0
21.05.2017 03:00:00 8,2 7,6 - - - 11 6 SSW 1023,2 21 0,0
21.05.2017 02:00:00 7,6 7,2 - - - 9 5 S 1023,3 19 0,0
21.05.2017 01:00:00 7,3 6,9 - - - 11 6 S 1023,3 19 0,0
21.05.2017 00:00:00 9,4 8,7 - - - 11 6 S 1022,6 26 0,0
20.05.2017 23:00:00 10,2 9,0 - - - 9 5 SSW 1021,9 10 1,8
20.05.2017 22:00:00 10,1 9,1 - - - 9 5 SSE 1021,5 40 0,2
20.05.2017 21:00:00 10,5 9,0 - - - 13 7 S 1020,8 35 0,0
20.05.2017 20:00:00 10,8 9,9 - - - 13 7 S 1020,3 10 1,2
20.05.2017 19:00:00 11,1 9,4 - - - 18 10 SW 1019,7 4,8 0,6
20.05.2017 18:00:00 12,4 9,7 - - - 15 8 SW 1018,9 35 4,0
20.05.2017 17:00:00 10,3 9,0 - - - 21 11 W 1019,0 1,3 2,8
20.05.2017 16:00:00 14,4 9,0 - - - 28 15 S 1017,7 10 0,0
20.05.2017 15:00:00 14,3 8,9 - - - 29 16 S 1017,6 10 0,0
20.05.2017 14:00:00 13,8 8,8 - - - 22 12 S 1017,5 10 0,0
20.05.2017 13:00:00 11,1 9,2 - - - 16 9 S 1017,5 10 2,4
20.05.2017 12:00:00 13,7 7,4 - - - 21 11 SSW 1016,8 10 0,0
20.05.2017 11:00:00 12,8 7,3 - - - 16 9 SSW 1017,0 10 0,0
20.05.2017 10:00:00 13,5 7,9 13,8 13,0 11,7 21 11 S 1016,4 10 0,0
20.05.2017 09:00:00 11,6 7,8 - - - 16 9 SSW 1016,2 10 0,0
20.05.2017 08:00:00 9,8 8,1 - - - 9 5 S 1015,9 10 0,0
20.05.2017 07:00:00 8,2 7,3 - - - 8 4 S 1015,6 10 0,0
20.05.2017 06:00:00 5,3 5,1 - - - 8 4 SSE 1015,1 10 0,0
20.05.2017 05:00:00 4,8 4,4 - - - 9 5 SSE 1014,7 14 0,0
20.05.2017 04:00:00 4,9 4,6 - - - 9 5 SSE 1014,5 15 0,0
20.05.2017 03:00:00 4,9 4,4 - - - 11 6 S 1014,4 15 0,0
20.05.2017 02:00:00 5,6 5,1 - - - 13 7 S 1014,2 10 0,0
20.05.2017 01:00:00 6,2 5,8 - - - 9 5 S 1014,1 23 0,0
20.05.2017 00:00:00 7,3 6,7 - - - 8 4 S 1014,0 10 0,0
19.05.2017 23:00:00 8,6 7,3 - - - 5 3 SE 1014,0 10 0,0
19.05.2017 22:00:00 9,2 7,9 - - - 9 5 ENE 1014,1 40 1,2
19.05.2017 21:00:00 9,2 8,0 - - - 8 4 NNW 1013,8 3,4 4,0
19.05.2017 20:00:00 11,0 7,9 - - - 11 6 SSW 1013,2 8 0,2
19.05.2017 19:00:00 12,0 7,8 - - - 21 11 S 1012,1 10 0,0
19.05.2017 18:00:00 13,3 7,2 - - - 21 11 S 1012,2 30 0,0
19.05.2017 17:00:00 13,8 7,4 - - - 13 7 SSE 1011,8 10 0,0
19.05.2017 16:00:00 14,6 6,0 - - - 8 4 SW 1012,0 10 0,0
19.05.2017 15:00:00 14,5 6,7 - - - 8 4 N 1012,1 10 0,0
19.05.2017 14:00:00 13,1 6,8 - - - 8 4 W 1012,3 10 0,0
19.05.2017 13:00:00 12,7 7,9 - - - 8 4 W 1012,3 10 0,0
19.05.2017 12:00:00 11,2 8,8 - - - 9 5 W 1012,6 10 0,2
19.05.2017 11:00:00 10,0 8,5 - - - 8 4 NW 1012,2 10 3,6
19.05.2017 10:00:00 11,3 9,0 11,4 13,2 11,7 11 6 W 1011,8 10 0,0
19.05.2017 09:00:00 10,5 9,0 - - - 11 6 W 1011,7 10 0,0
19.05.2017 08:00:00 9,8 8,8 - - - 13 7 W 1011,2 10 0,0
19.05.2017 07:00:00 9,7 9,0 - - - 5 3 W 1010,9 10 0,0
19.05.2017 06:00:00 9,5 8,8 - - - 5 3 WNW 1010,4 10 0,0
19.05.2017 05:00:00 9,5 9,0 - - - 5 3 WSW 1010,6 10 0,0
19.05.2017 04:00:00 9,4 8,9 - - - 2 1 NNW 1010,7 15 0,0
19.05.2017 03:00:00 9,4 9,1 - - - 4 2 SSE 1010,9 7 0,0
19.05.2017 02:00:00 9,6 9,1 - - - 4 2 NW 1010,9 15 0,0
19.05.2017 01:00:00 9,4 8,9 - - - 2 1 N 1011,2 10 0,2
19.05.2017 00:00:00 9,6 9,1 - - - 5 3 WSW 1011,6 10 0,2
18.05.2017 23:00:00 10,0 9,5 - - - 2 1 SW 1011,9 10 0,2
18.05.2017 22:00:00 10,3 9,4 - - - 4 2 S 1012,3 10 0,4
18.05.2017 21:00:00 10,3 9,5 - - - 2 1 SE 1012,1 10 0,2
18.05.2017 20:00:00 11,0 9,7 - - - 5 3 W 1012,3 10 0,8

tt = temperature
td = dewpoint
tt 5cm = temperature 5cm
tt -20cm = temperature -20cm
tt -100cm = temperature -100cm
ff = wind speed
dd = wind direction
ppp = reduced air pressure
vv = visibility
rr = precipitation

Next stations